DECAYED

STARLINK-1126, 44951 (Decayed)

Orbit data source: Space-Track

STARLINK-1126, 44951 was a payload satellite owned by SpaceX/Seattle (US) in LEO that was launched on Tue, 07 Jan 2020 UTC via an FALCON 9 launch vehicle from the Air Force Eastern Test Range (AFETR). Payload-class satellites include a variety of spacecraft equipped with specific instruments for various scientific and technological missions. These include communications satellites like Starlink; space stations such as the ISS; scientific satellites like the Hubble; Earth observation satellites from companies like Planet Labs, Umbra, and HawkEye 360; GPS; miniature CubeSats for education and research; and military/defense satellites.

Not visible in the next 10 days
Identifier
44951, 2020-001AP
Orbit
Decayed
Country
Flag of USUS
Related business
Manufacturer
SpaceX/Seattle
Mission
Decayed Commercial Communications
Bus & Motor
STARLINK, Unknown motor
Mass
260 kg wet, ~248 kg dry
Launch date (UTC)
2020-01-07 (6 years ago)
Launch vehicle
FALCON 9
Launch site
Air Force Eastern Test Range (AFETR)
Object type
Payload
Rocket body
Debris
Shape & HBR
Box + 1 Pan, 4.4 m
Radar Cross Section
13.562 m², Large (>1 m²)

Expand to show TLE details & history
Last TLE update: 1 year ago

TLE from 1 year ago
0 STARLINK-1126
1 44951U 20001AP  24135.78744387  .17366604  12163-4  35623-2 0  9990
2 44951  52.9854 234.0743 0005953 308.2104 191.2171 16.30377494243916
Epoch: 2024-05-14T18:53Z
TLE epoch observation values (Epoch: 2024-05-14T18:53:55.15Z)
Latitude
31.40066°
Longitude
-129.64262°
Altitude
197.273 km
Speed
7.79 km/s
True Right ascension
01h 47m 22s
True Declination
31° 14' 06"
Sunlit
Object was in daylight at epoch
Visualization orbit readout
Latitude
Unknown
Longitude
Unknown
Altitude
Unknown
Speed
Unknown
Apparent Right ascension
Unknown
Apparent Declination
Unknown
Sunlit
N/A
Visualization observer readout
Local Sidereal Time
00:14:38
Azimuth
Unknown
Elevation
Unknown
Doppler factor
Unknown
Orbital elements
Apogee altitude
195.733 km
Perigee altitude
187.911 km
Semi-major axis
6,569.959 km
Eccentricity
0.0006
Inclination
52.9854°
RAAN
234.0743°
Arg. of periapsis
308.2104°
True anomaly
191.20384°
Mean anomaly
191.2171°
Eccentric anomaly
191.21047°
Mean motion
4.07567 °/min
Orbital period
88.33 mins
BSTAR
0.0035623
Loading maneuver chart data...
Computing Atmospheric mass density...

Documentation

Showing up to 5 results
|